Regional Weather Roundup
Issued by NWS

Home | Current Version | Previous Version | Text Only | Print | Product List | Glossary Off
Versions: 1 2 3 4 5 6 7 8 9 10 11 12 13 14 15 16 17 18 19 20 21 22 23 24 25 26 27 28 29 30 31 32 33 34 35 36 37 38 39 40 41 42 43 44 45 46 47 48 49 50

000
ASUS43 KTOP 260859
RWRKS

WEATHER ROUNDUP FOR KANSAS
NATIONAL WEATHER SERVICE GOODLAND KS
400 AM CDT MON JUN 26 2017

NOTE:  "FAIR" INDICATES FEW OR NO CLOUDS BELOW 12,000 FEET WITH NO
SIGNIFICANT WEATHER AND/OR OBSTRUCTIONS TO VISIBILITY.

KSZ001>006-013>018-027>032-041>047-261000-
NORTHWEST KANSAS

CITY           SKY/WX    TMP DP  RH WIND       PRES   REMARKS
GOODLAND       CLOUDY    57  57 100 S9        30.27F FOG
HAYS           CLOUDY    58  56  93 CALM      30.25F
HILL CITY      CLOUDY    59  56  89 W7        30.25F
RUSSELL        CLOUDY    58  56  93 S7        30.22F
$$

KSZ061>065-074>080-084>089-261000-
SOUTHWEST KANSAS

CITY           SKY/WX    TMP DP  RH WIND       PRES   REMARKS
DODGE CITY     CLOUDY    60  58  92 S5        30.25F
ELKHART          N/A     58  49  72 NE3         N/A
GARDEN CITY    PTCLDY    59  57  93 E5        30.25F FOG
GREAT BEND     CLOUDY    59  57  93 S3        30.24F
LIBERAL        PTCLDY    61  59  93 E9        30.25S
$$

KSZ066>073-081>083-090>101-261000-
SOUTHEAST KANSAS

CITY           SKY/WX    TMP DP  RH WIND       PRES   REMARKS
CHANUTE          N/A    N/A N/A N/A MISG      30.24S
COFFEYVILLE    CLOUDY    65  57  75 NE8       30.23R
HUTCHINSON     CLOUDY    58  54  86 E3        30.22F
MEDICINE LODGE   N/A     61  54  77 E3        30.22F
NEWTON         MOCLDY    59  55  87 E3        30.23F
PARSONS        CLOUDY    66  56  70 CALM      30.25R
WICHITA INTL   CLOUDY    63  54  72 E7        30.22F
WICHITA JABRA  CLOUDY    60  57  89 NE6       30.22F
WINFIELD       CLOUDY    66  53  63 E9        30.23F
$$

KSZ007>012-019>026-033>040-048>060-102>105-261000-
NORTHEAST KANSAS

CITY           SKY/WX    TMP DP  RH WIND       PRES   REMARKS
CONCORDIA      CLOUDY    56  54  93 N7        30.22F
EMPORIA        CLOUDY    60  59  96 SE5       30.23F
LAWRENCE       CLEAR     51  51 100 E3        30.23F
MANHATTAN      CLEAR     55  54  96 CALM      30.22F
OLATHE IND     CLEAR     53  52  96 S3        30.23F
OLATHE EXE     CLEAR     53  53 100 CALM      30.23S
SALINA         MOCLDY    62  56  80 S7        30.22F
TOPEKA BILLARD CLEAR     54  54 100 CALM      30.22F
TOPEKA FORBES  CLEAR     56  55  97 SE3       30.22F
$$




USA.gov is the U.S. government's official web portal to all federal, state and local government web resources and services.